Reflectivity
-20 -20 -20 -20 -20 -20 -20 -20 -20 -20 -20 -20 -20 -20 21 31 14 -20 15 -20 -20 -20 -20 11 -11 -16 -20 4 8 21 24 -20 31 16 30 -20 -1 -4 -16 -13 -18 -20 -20
-20 -20 -20 -20 -20 -20 -20 -20 -20 -20 -20 -20 -20 -20 -20 28 29 28 -20 -20 9 -20 -20 -20 -20 -20 -17 -5 -20 -17 -17 -16 26 -20 28 -10 -20 3 -4 -10 -20 -20 -20
-20 -20 -20 -20 -20 -20 -20 -20 -20 -20 -20 -20 -20 -20 -20 -20 3 -18 28 29 10 -20 -20 -20 -20 -20 -20 -20 -20 -11 19 16 -14 -20 21 32 4 -5 -10 -4 -4 -5 -20
-20 -20 -20 -20 -20 -20 -20 -20 -20 -20 -20 -20 -20 -20 -20 -20 -20 -20 -20 -20 5 -20 -20 -15 4 -20 -20 -20 4 -20 -20 -3 -11 -20 28 17 -20 2 -8 -20 -20 -11 -20
-20 -20 -20 -20 -20 -20 -20 -20 -20 -20 -20 -20 -20 -20 -20 -20 -20 -20 -20 -20 -20 -20 -20 -20 -20 16 -8 -20 -20 -10 -8 -20 6 -20 11 -20 -4 -15 -20 -20 -20 -20 -2
-20 -20 -20 -20 -20 -20 -20 -20 -20 -20 -20 -7 -20 -20 -20 -20 -20 -20 -20 -20 -20 -20 -20 -20 -20 -20 -20 -20 -20 -20 -20 -20 -20 -14 -20 -20 -19 -6 -0 -20 -20 -20 -20
-20 -20 -20 -20 -20 -20 -20 -20 -20 -20 -20 -9 -20 -20 -20 -20 -20 -20 -20 -20 -20 -20 -20 -20 -20 -20 -20 -20 -20 -14 -20 -20 -20 13 -4 -20 -16 25 15 -20 -20 -20 -10
-20 -20 -20 -20 -20 -20 -20 -20 -20 -10 -20 -20 -20 -20 -15 -20 -20 -20 -20 -20 -20 -20 -20 -20 -20 -20 -20 -20 -20 -20 -20 -20 -20 -20 -20 -12 -20 -19 -20 -20 -8 0 -20
-16 1 -14 -8 -6 -3 -14 0 -1 -17 -20 -20 -20 -20 -4 -20 6 -20 -18 -20 -20 -20 -20 -20 -20 -20 -20 -19 12 -20 -20 -20 -6 -20 -20 -20 -20 -20 -20 1 -20 -20 -20
-20 -19 -1 -5 -20 -19 1 -3 -6 9 3 3 -20 -20 -20 -20 -20 -20 1 -20 -20 -20 -20 -20 -20 -20 -20 -20 -2 17 -19 -20 -19 -8 -12 -20 -1 -20 -20 -20 4 1 -20
-14 -4 -15 -15 -15 -20 -10 -10 -9 -5 -7 4 3 -10 -10 -11 6 8 8 -8 -14 -20 -20 -20 -20 -6 -11 -3 -20 -14 7 5 -20 -20 7 -20 -20 19 -14 -20 8 9 10
-1 -13 -20 -20 -20 -20 -20 -20 -18 -5 -20 3 4 15 -14 -20 8 8 10 16 15 -8 -14 -10 -5 10 3 -2 4 -20 -20 10 4 -4 26 -1 19 15 35 38 33 30 24
-3 -20 -20 -20 -20 -20 -20 -20 -16 -14 -20 -20 -13 -7 8 -20 -20 -0 -20 -19 -20 -12 -5 -3 2 2 -4 3 -20 -19 8 -18 18 15 25 27 26 27 35 40 34 37 31
-20 -20 -20 -20 -20 -20 -20 -20 -20 -20 -4 -2 -4 -2 -17 -17 -10 -20 -12 -16 6 -13 3 -6 -14 -0 6 3 -7 -4 -18 -19 -15 -2 -8 29 21 26 21 31 39 33 28
-20 -20 -20 -20 -20 -20 -20 -20 -20 -20 -11 -20 -20 -12 -20 -10 -15 -11 -6 -19 -20 -11 -9 4 -7 5 -0 -9 -0 -1 -20 -12 -5 5 21 20 24 22 33 34 40 35 38
-20 -20 -12 -20 -20 -20 -20 -20 11 10 3 9 6 -9 -15 5 5 1 9 8 9 9 1 -1 -20 -20 -18 2 2 -2 -6 3 -20 -20 -6 13 31 37 39 32 37 33 35
-20 -20 -20 -20 -18 -20 -20 -20 -19 -6 5 -3 10 8 -13 -1 3 7 6 11 10 -13 -8 -4 -2 -1 -2 -5 -12 -3 2 -2 -20 -20 -11 15 12 21 26 6 18 20 25
-20 -7 -20 -20 -20 -16 -16 -4 -20 -15 -20 -17 1 6 5 -0 -1 7 7 12 -20 -18 -15 -14 -2 -2 -20 -16 -16 3 8 5 0 -15 -16 -8 -5 -2 6 12 13 15 19
-20 -20 -20 -8 -18 -6 -7 -9 -20 -17 -6 1 -0 5 5 6 10 7 8 -20 -20 -20 -1 3 5 7 -0 -20 -8 4 -13 -5 4 10 17 14 17 18 16 16 17 23 19
-20 -20 -20 -16 -5 -2 -3 -20 -20 -20 -20 -16 -20 -16 -19 -15 -14 3 -7 1 -2 1 -13 -2 -8 -2 -15 -20 -20 -19 5 10 -0 3 -1 2 -3 -2 7 1 -1 -15 -17
-20 -20 -20 -6 -20 -20 -20 -3 -16 0 -2 -2 -20 -9 -17 -20 2 -20 -20 -20 -20 -19 -19 2 0 -15 -12 -18 -4 21 9 20 -18 -20 -20 -20 -20 -20 -20 -20 -20 -20 -20
-20 -20 -20 -9 3 5 -1 -6 6 2 1 -1 -20 -16 1 -20 -20 -20 -20 -20 -20 -20 -7 -20 -20 -20 -20 -20 5 -6 -10 -20 -20 -17 -20 -20 -20 -20 -18 -11 -1 -20 -20
-20 -20 -20 -20 -20 -20 -10 -20 -20 -17 -20 -20 -11 -0 -8 -20 -20 -20 -20 -20 -20 -20 -20 -20 -20 -20 -20 -20 -20 -5 14 -0 -10 -20 -17 -11 -9 -19 -15 -11 -12 -14 -20
-20 -20 -20 -20 -20 -20 -20 -20 -20 -20 -20 -20 -20 -20 -20 -20 -20 -20 -20 -20 -20 -18 -20 -13 -20 -20 -20 -20 -20 -20 -18 -6 -17 -13 -20 -18 -16 -20 -20 -20 -20 -19 -20
-20 -20 -20 -20 -20 -20 -20 -20 -20 -20 -20 -20 -20 -20 -20 -20 -20 -20 -20 -20 -20 -20 -20 -20 -20 -20 -20 -20 -20 -20 -20 -20 -20 -20 -20 -20 -20 -7 -5 -20 -20 -20 -20
-20 -20 -20 -20 -20 -20 -20 -20 -20 -20 -20 -20 -20 -20 -20 -20 -20 -20 -20 -20 -20 -20 -20 -20 -20 -20 -20 -20 -20 -20 -20 -20 -20 -20 -20 -20 -20 -20 -20 -20 -20 -20 -20
Wind_Speed
13 12 12 11 12 12 11 11 11 10 9 9 8 8 9 9 9 9 9 7 7 7 6 6 6 5 5 4 3 4 4 5 3 2 2 4 5 7 6 6 6 5 5
11 12 13 12 11 12 13 14 12 12 11 10 8 7 8 8 7 9 10 9 9 9 8 7 7 5 7 5 5 5 5 4 4 6 4 4 3 6 6 6 4 4 4
10 10 10 10 10 12 12 12 12 12 11 11 10 9 9 9 8 8 8 8 8 8 8 8 9 6 7 7 6 5 5 5 5 4 2 2 3 3 4 4 5 5 4
10 10 10 10 9 9 10 10 10 9 11 11 11 11 10 9 8 8 8 9 8 8 9 9 9 8 8 7 6 8 7 5 5 5 4 4 4 4 3 3 3 3 5
8 9 9 7 6 6 7 8 9 9 10 11 11 11 11 10 8 9 9 9 8 9 9 9 10 9 7 8 6 7 7 7 6 6 6 6 5 3 6 4 4 4 3
8 8 7 6 6 7 6 6 8 9 10 11 12 10 11 10 10 12 11 9 9 9 10 11 10 8 10 11 12 12 9 8 9 8 7 10 8 7 6 5 4 3 3
9 9 8 7 7 6 7 6 8 10 10 11 11 10 11 11 9 12 13 10 10 10 10 10 10 9 10 11 10 8 9 11 11 8 10 10 8 9 8 9 9 6 5
8 8 7 7 8 8 9 8 6 9 9 10 10 10 10 10 10 12 12 11 10 12 12 12 12 11 11 10 10 10 11 9 11 10 12 11 10 8 10 10 9 6 5
8 8 7 7 6 5 6 7 8 8 9 9 8 10 11 12 11 12 9 10 11 12 12 13 13 12 12 12 12 12 13 12 7 5 6 7 5 6 8 7 7 7 3
7 6 6 5 4 4 3 2 2 5 9 8 9 11 11 11 9 10 10 8 10 9 11 12 11 14 10 11 12 12 13 12 11 9 8 6 7 7 8 11 9 8 5
7 7 7 5 5 3 2 0 1 2 3 5 8 8 8 6 2 2 5 5 5 7 7 7 7 10 11 10 13 11 13 12 11 10 9 8 8 8 8 9 7 8 8
8 8 7 5 3 3 2 1 2 2 2 3 2 1 2 4 6 4 5 5 6 6 7 7 6 3 4 7 8 13 13 6 8 8 7 7 7 7 5 6 5 3 3
7 6 6 6 4 3 2 1 1 2 1 2 1 2 3 3 3 5 5 6 5 3 5 6 8 10 11 8 11 12 9 6 7 7 8 9 9 9 9 6 8 10 7
7 6 5 4 4 4 4 3 2 1 0 1 2 2 2 3 4 5 5 5 5 5 5 5 5 7 8 6 3 5 5 6 7 8 7 4 4 3 4 3 8 9 7
6 5 4 3 3 4 4 4 3 3 3 3 3 3 4 4 2 4 3 3 2 4 5 3 3 3 2 2 2 4 4 3 3 4 6 7 6 8 8 7 7 7 8
6 5 3 3 2 2 3 5 7 5 4 4 3 4 4 3 3 2 3 3 4 5 4 4 4 4 4 4 3 2 3 5 6 7 8 8 7 8 8 8 6 6 8
5 5 4 3 4 4 3 3 4 3 5 4 6 6 7 2 7 9 9 6 10 6 7 6 5 5 5 5 5 5 5 6 7 8 9 8 8 8 7 6 6 4 7
5 6 4 4 4 4 4 4 3 3 3 3 2 1 1 1 5 8 9 3 5 6 6 5 4 5 5 5 5 5 6 6 6 7 8 8 7 7 6 5 5 4 5
5 4 4 3 4 4 4 4 3 3 3 3 3 5 5 3 2 2 6 4 2 3 3 4 4 4 4 5 4 5 5 5 6 6 6 5 5 7 7 6 6 8 8
5 5 4 4 4 4 3 3 3 3 3 3 3 2 2 1 2 2 2 2 2 3 3 2 3 2 4 4 4 4 4 4 4 5 5 5 6 7 7 8 8 9 9
5 6 4 5 5 5 4 4 4 4 4 4 4 3 1 4 3 3 3 3 3 3 4 3 3 2 3 4 3 4 4 3 6 7 8 8 8 7 6 6 9 10 9
6 6 6 6 6 6 5 4 5 4 4 4 3 4 7 5 4 4 4 4 4 4 4 3 3 5 5 4 4 7 8 8 7 7 7 7 7 7 6 7 7 8 9
7 7 6 6 5 5 6 5 4 4 4 3 4 4 4 5 4 5 5 5 4 4 4 5 4 4 5 5 5 6 6 6 6 7 7 7 6 6 7 7 8 9 9
7 8 7 6 6 6 6 6 5 6 4 5 6 5 4 4 4 6 6 6 5 4 5 7 6 7 6 7 6 7 7 6 5 7 8 7 8 9 8 7 8 10 10
7 8 8 7 7 6 5 5 5 5 5 6 6 5 4 4 4 4 5 5 6 7 7 6 5 7 10 10 9 10 7 10 8 6 7 7 8 10 8 8 9 9 10
7 7 7 6 6 6 5 5 5 4 5 5 5 5 5 5 5 4 5 6 6 6 7 5 6 9 8 7 9 8 9 11 10 11 9 8 8 9 8 10 12 9 10
Wind_Direction
207 210 214 215 214 216 224 226 224 224 218 232 234 252 248 228 215 216 222 222 218 230 225 241 252 259 264 253 240 219 204 225 241 256 202 134 158 138 146 128 161 118 119
209 209 214 219 219 223 229 227 223 228 226 217 226 236 256 254 256 228 218 227 222 233 241 242 250 258 265 260 256 258 242 222 256 265 200 150 181 164 154 156 150 117 118
209 212 213 218 225 228 232 237 230 227 228 227 223 223 239 254 249 253 258 241 230 239 251 248 249 237 258 263 254 251 254 234 224 253 246 159 119 137 128 112 129 130 128
203 212 219 221 226 240 241 239 245 237 236 225 227 230 230 237 244 246 238 239 238 241 248 251 244 235 246 258 254 244 236 234 224 237 249 225 183 148 147 153 169 168 171
196 203 214 212 207 211 222 235 237 236 240 241 228 224 230 231 225 220 238 240 244 255 247 245 242 245 247 253 260 255 240 240 236 236 242 243 206 174 193 167 180 158 156
186 193 189 188 194 202 206 225 236 235 231 235 236 229 235 233 207 199 214 239 243 246 251 255 253 234 240 226 225 242 261 236 239 238 240 238 238 211 193 179 146 160 195
187 192 190 189 198 213 220 229 235 238 236 229 233 227 235 240 213 206 202 237 244 246 246 247 249 245 228 250 218 222 233 245 255 264 248 244 238 215 197 192 188 193 216
173 182 190 202 215 223 231 234 223 238 236 234 228 221 232 239 218 220 217 236 240 243 245 247 248 251 247 243 247 244 243 233 227 228 240 255 245 249 216 208 201 171 84
155 164 177 194 203 215 233 236 234 235 232 237 238 232 222 233 214 218 210 230 237 239 239 241 241 246 246 211 242 250 251 245 188 229 274 300 267 220 220 167 166 172 157
143 135 132 141 148 157 164 190 262 240 242 236 235 231 230 240 214 221 205 234 235 237 240 244 226 244 253 204 226 244 248 246 235 207 219 226 214 198 191 213 189 203 168
129 134 127 127 124 116 124 338 283 268 280 265 243 240 242 245 198 170 219 247 258 256 251 247 243 203 234 233 223 249 248 265 230 214 223 219 202 200 201 212 223 215 198
142 140 138 131 122 119 146 194 233 259 270 263 263 257 79 85 54 41 10 297 323 279 272 283 290 31 329 263 232 238 261 270 250 223 211 195 190 184 188 182 204 131 56
160 150 136 128 113 88 70 25 265 299 262 238 120 79 102 80 72 39 356 323 304 272 277 292 302 294 279 262 245 247 242 231 223 211 215 211 204 182 162 135 116 98 62
156 154 143 133 116 81 76 51 45 12 356 74 65 77 59 35 33 7 341 327 299 282 279 284 290 277 269 276 289 236 226 224 224 222 224 194 125 101 105 116 110 90 76
145 143 139 114 86 93 71 31 62 63 340 42 68 66 82 79 23 288 280 339 326 296 278 261 286 289 308 325 272 241 210 210 140 106 96 97 94 95 98 83 58 76 99
139 145 146 157 156 121 116 114 61 65 60 62 50 66 105 106 250 318 354 338 327 3 46 28 16 13 25 2 3 42 71 104 113 115 108 113 108 110 105 97 85 105 116
147 151 153 187 169 169 167 155 134 97 66 86 77 71 67 71 21 12 12 15 29 49 50 37 32 26 34 42 39 41 48 81 98 103 106 107 103 117 106 108 106 90 94
162 136 169 189 180 179 189 192 170 161 149 136 98 86 111 42 38 18 356 276 75 71 74 63 55 56 33 59 64 70 80 87 95 101 108 118 123 119 116 115 114 148 163
181 153 176 176 198 204 189 187 181 176 177 156 173 195 190 228 270 71 326 13 23 92 89 91 94 88 90 92 73 83 87 100 113 120 117 122 133 142 147 159 177 184 165
187 141 169 159 181 197 192 199 198 197 203 214 206 226 184 229 240 301 329 327 340 344 34 99 102 122 103 112 111 94 93 107 114 127 129 139 155 171 172 185 187 182 191
180 161 178 174 186 195 195 205 212 219 218 221 238 235 231 257 269 252 236 226 210 222 202 201 142 147 156 142 144 131 129 149 170 168 172 179 181 193 204 207 200 188 184
184 172 175 198 199 196 192 209 222 227 227 230 239 228 198 236 255 258 252 240 235 230 264 211 202 200 167 194 187 169 190 187 187 190 189 196 197 206 195 194 183 184 183
185 173 181 194 210 179 191 197 202 227 240 251 271 253 235 246 229 236 240 236 228 229 225 243 222 193 199 199 212 223 209 205 204 198 203 197 196 198 192 190 185 190 192
182 182 190 182 200 200 196 198 189 202 222 228 233 233 239 244 244 229 223 224 224 227 218 227 235 233 227 242 232 214 219 204 195 194 202 194 192 178 188 191 188 192 197
190 192 191 187 203 211 188 214 195 197 209 215 231 235 234 232 242 239 233 225 206 201 209 227 250 262 258 236 221 212 185 166 194 177 195 201 203 192 198 199 201 204 209
194 200 204 202 221 229 228 237 234 234 239 236 236 238 235 231 227 222 207 206 210 213 223 230 243 248 245 227 216 195 158 184 189 198 200 198 198 197 201 212 210 218 218